DW4844 Weather Reports


time (UTC)temp
C
wind
direction
speed
KPH
gust
KPH
rain 1hr
cm
rain 24hr
cm
rain mn
cm
humidity
%
barometer
mb
20260506023216 0 0.0 0.0 0.00 0.00 0.00 90 1013.9
20260506022216 0 0.0 0.0 0.00 0.00 0.00 90 1013.9
20260506021217 0 0.0 0.0 0.00 0.00 0.00 90 1014.0
20260506020217 0 0.0 0.0 0.00 0.00 0.00 90 1014.0
20260506015217 0 0.0 0.0 0.00 0.00 0.00 90 1014.1
20260506014217 0 0.0 0.0 0.00 0.00 0.00 90 1014.0
20260506013217 0 0.0 0.0 0.00 0.00 0.00 90 1013.9
20260506012216 0 0.0 0.0 0.00 0.00 0.00 89 1013.9
20260506011216 0 0.0 0.0 0.00 0.00 0.00 89 1013.8
20260506010216 0 0.0 0.0 0.00 0.00 0.00 88 1013.9
20260506005217 0 0.0 0.0 0.00 0.00 0.00 88 1013.8
20260506004217 0 0.0 0.0 0.00 0.00 0.00 88 1014.0
20260506003217 0 0.0 0.0 0.00 0.00 0.00 87 1014.0
20260506002216 0 0.0 0.0 0.00 0.00 0.00 87 1014.1
20260506001217 0 0.0 0.0 0.00 0.00 0.00 87 1013.9
20260506000219 1 0.0 0.0 0.00 0.00 0.00 87 1013.9
20260505235257 1 0.0 0.0 0.00 0.00 0.00 87 1013.9
20260505234216 1 0.0 0.0 0.00 0.00 0.00 87 1013.9
20260505233217 1 0.0 0.0 0.00 0.00 0.00 86 1013.9
20260505232237 1 0.0 0.0 0.00 0.00 0.00 87 1013.8
20260505231217 1 0.0 0.0 0.00 0.00 0.00 86 1013.9
20260505230217 1 0.0 0.0 0.00 0.00 0.00 86 1013.9
20260505225216 1 0.0 0.0 0.00 0.00 0.00 85 1013.9
20260505224217 1 0.0 0.0 0.00 0.00 0.00 84 1013.9
20260505223216 1 0.0 0.0 0.00 0.00 0.00 83 1013.9
20260505222216 1 0.0 0.0 0.00 0.00 0.00 82 1014.0
20260505221216 2 0.0 0.0 0.00 0.00 0.00 81 1013.9
20260505220217 2 0.0 0.0 0.00 0.00 0.00 81 1013.9
20260505215216 2 0.0 0.0 0.00 0.00 0.00 80 1013.9
20260505214217 2 0.0 0.0 0.00 0.00 0.00 80 1013.9
20260505213217 2 0.0 0.0 0.00 0.00 0.00 79 1013.9
20260505212217 2 0.0 0.0 0.00 0.00 0.00 78 1014.0
20260505211237 3 0.0 0.0 0.00 0.00 0.00 78 1014.0
20260505210216 3 0.0 0.0 0.00 0.00 0.00 77 1013.8
20260505205217 3 0.0 0.0 0.00 0.00 0.00 76 1013.9
20260505204216 3 0.0 0.0 0.00 0.00 0.00 76 1013.9
20260505203217 3 0.0 0.0 0.00 0.00 0.00 75 1013.8
20260505202217 3 0.0 0.0 0.00 0.00 0.00 75 1013.8
20260505201216 3 0.0 0.0 0.00 0.00 0.00 75 1013.8
20260505200257 4 0.0 0.0 0.00 0.00 0.00 75 1013.8
20260505195217 4 0.0 0.0 0.00 0.00 0.00 75 1013.7
20260505194217 4 0.0 0.0 0.00 0.00 0.00 76 1013.6
20260505193216 4 0.0 0.0 0.00 0.00 0.00 76 1013.7
20260505192217 5 0.0 0.0 0.00 0.00 0.00 75 1013.7
20260505191216 5 0.0 0.0 0.00 0.00 0.00 73 1013.6
20260505190217 5 0.0 0.0 0.00 0.00 0.00 72 1013.6
20260505185216 6 0.0 0.0 0.00 0.00 0.00 70 1013.4
20260505184216 6 0.0 0.0 0.00 0.00 0.00 68 1013.4
20260505183217 6 0.0 0.0 0.00 0.00 0.00 67 1013.3
20260505182217 6 0.0 0.0 0.00 0.00 0.00 66 1013.2
20260505181216 6 0.0 0.0 0.00 0.00 0.00 65 1013.2
20260505180216 6 0.0 0.0 0.00 0.00 0.00 65 1013.2
20260505175217 6 0.0 0.0 0.00 0.00 0.00 67 1013.2
20260505174217 6 0.0 0.0 0.00 0.00 0.00 64 1013.2
20260505173216 7 0.0 0.0 0.00 0.00 0.00 64 1013.2
20260505172216 7 0.0 0.0 0.00 0.00 0.00 65 1013.2
20260505171216 7 0.0 0.0 0.00 0.00 0.00 65 1013.2
20260505170217 7 0.0 0.0 0.00 0.00 0.00 66 1013.2
20260505165236 7 0.0 0.0 0.00 0.00 0.00 67 1013.1
20260505164237 7 0.0 0.0 0.00 0.00 0.00 65 1013.1
20260505163217 6 0.0 0.0 0.00 0.00 0.00 65 1013.1
20260505162216 6 0.0 0.0 0.00 0.00 0.00 63 1013.1
20260505161217 6 0.0 0.0 0.00 0.00 0.00 61 1013.1
20260505160217 6 0.0 0.0 0.00 0.00 0.00 62 1013.1
20260505153236 7 0.0 0.0 0.00 0.00 0.00 63 1013.0
20260505152216 7 0.0 0.0 0.00 0.00 0.00 64 1013.1
20260505151217 7 0.0 0.0 0.00 0.00 0.00 68 1013.1
20260505150216 7 0.0 0.0 0.00 0.00 0.00 67 1013.1
20260505140216 7 0.0 0.0 0.00 0.00 0.00 67 1013.2
20260505130217 7 0.0 0.0 0.00 0.00 0.00 64 1013.1
20260505124216 7 0.0 0.0 0.00 0.00 0.00 62 1013.1
20260505123237 7 0.0 0.0 0.00 0.00 0.00 62 1013.0
20260505122217 7 0.0 0.0 0.00 0.00 0.00 63 1013.1
20260505121216 7 0.0 0.0 0.00 0.00 0.00 61 1013.1
20260505120216 7 0.0 0.0 0.00 0.00 0.00 61 1013.0
20260505115217 8 0.0 0.0 0.00 0.00 0.00 61 1013.0
20260505114216 8 0.0 0.0 0.00 0.00 0.00 61 1013.0
20260505113216 8 0.0 0.0 0.00 0.00 0.00 61 1012.9
20260505112236 8 0.0 0.0 0.00 0.00 0.00 61 1012.9
20260505111237 8 0.0 0.0 0.00 0.00 0.00 62 1012.9
20260505110237 7 0.0 0.0 0.00 0.00 0.00 62 1012.8
20260505102217 6 0.0 0.0 0.00 0.00 0.00 63 1012.9
20260505101216 6 0.0 0.0 0.00 0.00 0.00 64 1013.0
20260505100217 6 0.0 0.0 0.00 0.00 0.00 63 1012.9
20260505095216 6 0.0 0.0 0.00 0.00 0.00 63 1012.7
20260505094216 6 0.0 0.0 0.00 0.00 0.00 63 1012.9
20260505093216 6 0.0 0.0 0.00 0.00 0.00 63 1012.8
20260505092236 7 0.0 0.0 0.00 0.00 0.00 61 1012.7
20260505091217 7 0.0 0.0 0.00 0.00 0.00 63 1012.7
20260505090216 6 0.0 0.0 0.00 0.00 0.00 62 1012.5
20260505085216 6 0.0 0.0 0.00 0.00 0.00 63 1012.6
20260505084216 6 0.0 0.0 0.00 0.00 0.00 65 1012.5
20260505083217 6 0.0 0.0 0.00 0.00 0.00 66 1012.6
20260505082217 5 0.0 0.0 0.00 0.00 0.00 67 1012.5
20260505081216 5 0.0 0.0 0.00 0.00 0.00 68 1012.5
20260505080236 5 0.0 0.0 0.00 0.00 0.00 67 1012.5
20260505075216 5 0.0 0.0 0.00 0.00 0.00 66 1012.4
20260505074216 5 0.0 0.0 0.00 0.00 0.00 65 1012.4
20260505073216 5 0.0 0.0 0.00 0.00 0.00 67 1012.4
20260505072216 5 0.0 0.0 0.00 0.00 0.00 68 1012.3
20260505071216 5 0.0 0.0 0.00 0.00 0.00 71 1012.4
20260505070236 5 0.0 0.0 0.00 0.00 0.00 73 1012.3
20260505065236 5 0.0 0.0 0.00 0.00 0.00 75 1012.4
20260505064237 4 0.0 0.0 0.00 0.00 0.00 74 1012.4
20260505063217 4 0.0 0.0 0.00 0.00 0.00 76 1012.4
20260505062216 4 0.0 0.0 0.00 0.00 0.00 77 1012.4
20260505061217 4 0.0 0.0 0.00 0.00 0.00 80 1012.5
20260505060237 3 0.0 0.0 0.00 0.00 0.00 85 1012.5
20260505055216 2 0.0 0.0 0.00 0.00 0.00 90 1012.6
20260505054236 1 0.0 0.0 0.00 0.00 0.00 93 1012.5
20260505053237 1 0.0 0.0 0.00 0.00 0.00 92 1012.5
20260505052216 1 0.0 0.0 0.00 0.00 0.00 92 1012.5
20260505051216 0 0.0 0.0 0.00 0.00 0.00 92 1012.6
20260505050216 0 0.0 0.0 0.00 0.00 0.00 92 1012.4
20260505041216 0 0.0 0.0 0.00 0.00 0.00 93 1011.7
20260505040217 0 0.0 0.0 0.00 0.00 0.00 93 1011.5
20260505035216 0 0.0 0.0 0.00 0.00 0.00 92 1011.9
20260505034236 -1 0.0 0.0 0.00 0.00 0.00 92 1011.9
20260505033216 -1 0.0 0.0 0.00 0.00 0.00 92 1011.9
20260505032216 -1 0.0 0.0 0.00 0.00 0.00 92 1012.0
20260505031216 0 0.0 0.0 0.00 0.00 0.00 92 1012.0
20260505030216 0 0.0 0.0 0.00 0.00 0.00 92 1012.0
20260505025216 0 0.0 0.0 0.00 0.00 0.00 92 1012.0
20260505024237 0 0.0 0.0 0.00 0.00 0.00 92 1012.0